Waarnemingen

Advertentie
Mijn weer
Freiburg, Duitsland (10803): temperatuur & dauwpunt: 12.02.2019 01:00:00 - 18.02.2019 01:00:00 (CET)Freiburg, Duitsland (10803): temperatuur 5cm & temperatuur -5cm: 12.02.2019 01:00:00 - 18.02.2019 01:00:00 (CET)Freiburg, Duitsland (10803): temperatuur -20cm & temperatuur -100cm: 12.02.2019 01:00:00 - 18.02.2019 01:00:00 (CET)Freiburg, Duitsland (10803): windsnelheid & windstoten: 12.02.2019 01:00:00 - 18.02.2019 01:00:00 (CET)Freiburg, Duitsland (10803): windrichting: 12.02.2019 01:00:00 - 18.02.2019 01:00:00 (CET)Freiburg, Duitsland (10803): luchtdruk: 12.02.2019 01:00:00 - 18.02.2019 01:00:00 (CET)Freiburg, Duitsland (10803): zicht: 12.02.2019 01:00:00 - 18.02.2019 01:00:00 (CET)Freiburg, Duitsland (10803): Zonneschijnduur: 12.02.2019 01:00:00 - 18.02.2019 01:00:00 (CET)Freiburg, Duitsland (10803): neerslag: 12.02.2019 01:00:00 - 18.02.2019 01:00:00 (CET)
Datum & Tijd tt [°C] td [°C] tt 5cm [°C] tt -5cm [°C] tt -20cm [°C] tt -100cm [°C] ff [km/u] ff [kn] fx [km/u] fx [kn] dd ppp [hPa] vv [km] sd [min] rr [mm]
18.02.2019 01:00:00 1,5 -2,7 -2,8 1,2 5,1 5,8 3 1 6 3 ZO 1024,2 24 0 0,0
18.02.2019 00:00:00 2,8 -2,2 -2,2 1,4 5,5 5,8 4 2 6 3 WZW 1023,9 23 0 0,0
17.02.2019 23:00:00 2,3 -2,8 -1,6 1,8 5,8 5,8 3 2 8 4 NW 1024,2 15 0 0,0
17.02.2019 22:00:00 4,0 -2,7 -1,8 2,6 6,2 5,8 0 0 4 2 N 1024,2 47 0 0,0
17.02.2019 21:00:00 5,2 -1,5 -0,2 3,6 6,6 5,8 2 1 8 4 W 1023,9 38 0 0,0
17.02.2019 20:00:00 6,5 -1,1 0,5 4,9 6,9 5,8 4 2 7 4 N 1023,4 34 0 0,0
17.02.2019 19:00:00 9,7 -0,8 2,4 6,7 7,1 5,8 4 2 8 4 ZZO 1022,9 51 0 0,0
17.02.2019 18:00:00 12,7 -2,6 5,7 9,9 6,9 5,8 2 1 7 4 Z 1022,2 70 5 0,0
17.02.2019 17:00:00 19,3 -2,3 18,4 12,8 6,4 5,8 4 2 11 6 WZW 1021,7 70 60 0,0
17.02.2019 16:00:00 19,2 -4,2 20,0 14,2 5,7 5,8 5 3 10 5 ZZW 1022,2 70 60 0,0
17.02.2019 15:00:00 19,1 -3,3 20,2 15,0 4,8 5,8 5 3 9 5 ZW 1022,7 70 60 0,0
17.02.2019 14:00:00 17,8 -0,2 19,5 14,1 3,9 5,8 3 2 6 4 ZZW 1023,5 42 60 0,0
17.02.2019 13:00:00 15,0 0,9 16,7 11,7 3,2 5,8 3 2 6 3 Z 1024,5 28 60 0,0
17.02.2019 12:00:00 12,1 -0,6 14,5 7,6 2,8 5,8 2 1 8 4 ZW 1025,6 30 60 0,0
17.02.2019 11:00:00 9,0 -1,3 11,2 0,4 2,8 5,8 3 1 5 3 WZW 1026,2 29 60 0,0
17.02.2019 10:00:00 6,2 -0,6 7,2 0,2 2,9 5,8 2 1 4 2 ZZW 1026,6 21 60 0,0
17.02.2019 09:00:00 1,6 -1,6 2,7 0,1 3,1 5,8 2 1 4 2 NNW 1027,2 24 40 0,0
17.02.2019 08:00:00 -2,0 -3,8 -4,5 0,2 3,2 5,8 3 2 5 3 Z 1027,6 25 0 0,0
17.02.2019 07:00:00 -1,6 -3,0 -5,0 0,3 3,4 5,8 2 1 4 2 ZZO 1027,5 28 0 0,0
17.02.2019 06:00:00 -1,3 -2,9 -5,0 0,5 3,5 5,8 2 1 6 4 ONO 1027,5 31 0 0,0
17.02.2019 05:00:00 -0,8 -2,7 -4,3 0,6 3,7 5,8 3 2 5 3 ZW 1027,3 31 0 0,0
17.02.2019 04:00:00 -0,5 -2,9 -4,4 0,7 3,9 5,8 3 1 6 3 NNO 1027,6 30 0 0,0
17.02.2019 03:00:00 1,8 -1,6 -2,8 0,8 4,1 5,8 5 3 7 4 ZZW 1027,7 34 0 0,0
17.02.2019 02:00:00 0,3 -2,1 -3,9 0,9 4,4 5,8 0 0 5 3 N 1027,9 7 0 0,0
17.02.2019 01:00:00 2,2 -0,9 -2,5 1,1 4,7 5,8 3 2 7 4 OZO 1027,9 6 0 0,0
17.02.2019 00:00:00 1,3 -1,5 -2,5 1,2 5,0 5,8 3 2 6 3 ZZW 1028,1 22 0 0,0
16.02.2019 23:00:00 2,1 -1,3 -2,4 1,5 5,4 5,8 0 0 7 4 N 1028,0 16 0 0,0
16.02.2019 22:00:00 3,4 0,4 -1,1 2,2 5,7 5,8 2 1 4 2 WZW 1028,0 25 0 0,0
16.02.2019 21:00:00 3,5 0,2 -0,6 3,2 6,1 5,8 4 2 6 4 N 1028,0 9 0 0,0
16.02.2019 20:00:00 5,3 0,5 -0,1 4,5 6,4 5,8 0 0 4 2 N 1028,0 12 0 0,0
16.02.2019 19:00:00 7,3 0,9 1,4 6,3 6,5 5,8 0 0 5 3 N 1028,0 26 0 0,0
16.02.2019 18:00:00 11,3 0,7 5,1 9,3 6,3 5,8 4 2 6 3 NO 1027,1 32 4 0,0
16.02.2019 17:00:00 16,7 -0,6 17,2 12,3 5,8 5,8 4 2 5 3 NNW 1026,6 45 60 0,0
16.02.2019 16:00:00 17,3 -2,3 18,7 13,7 5,1 5,8 3 1 6 4 ZZO 1026,8 52 60 0,0
16.02.2019 15:00:00 16,9 -1,7 18,6 14,0 4,2 5,8 4 2 9 5 ZW 1027,2 42 60 0,0
16.02.2019 14:00:00 14,4 1,0 16,7 12,7 3,3 5,8 4 2 9 5 ZZW 1028,0 23 60 0,0
16.02.2019 13:00:00 12,3 1,0 14,2 10,1 2,7 5,8 5 3 10 5 ZZW 1028,9 24 60 0,0
16.02.2019 12:00:00 9,8 0,2 12,1 5,1 2,4 5,8 8 4 11 6 ZW 1029,9 25 60 0,0
16.02.2019 11:00:00 8,0 -1,2 9,5 0,1 2,5 5,8 3 2 5 3 Z 1030,0 31 60 0,0
16.02.2019 10:00:00 4,8 -1,0 5,4 0,0 2,6 5,8 0 0 7 4 N 1030,7 26 60 0,0
16.02.2019 09:00:00 0,2 -1,8 0,8 0,0 2,7 5,8 0 0 4 2 N 1031,1 15 38 0,0
16.02.2019 08:00:00 -2,3 -3,9 -5,2 0,1 2,9 5,8 3 1 7 4 NO 1031,3 10 0 0,0
16.02.2019 07:00:00 -1,8 -3,1 -4,7 0,2 3,0 5,8 4 2 6 4 WZW 1030,9 16 0 0,0
16.02.2019 06:00:00 -1,8 -2,5 -4,6 0,3 3,1 5,8 3 1 4 2 ZW 1031,1 8 0 0,0
16.02.2019 05:00:00 -1,9 -3,1 -5,0 0,4 3,3 5,8 0 0 3 2 N 1030,7 12 0 0,0
16.02.2019 04:00:00 -1,8 -3,0 -4,0 0,5 3,5 5,8 4 2 5 3 NNW 1030,9 8 0 0,0
16.02.2019 03:00:00 -1,1 -1,8 -4,6 0,6 3,6 5,8 0 0 4 2 N 1030,9 8 0 0,0
16.02.2019 02:00:00 -0,1 -1,0 -2,8 0,7 3,8 5,8 0 0 7 4 N 1030,8 8 0 0,0
16.02.2019 01:00:00 -0,4 -1,7 -3,1 0,8 4,1 5,8 0 0 4 2 N 1030,9 8 0 0,0
16.02.2019 00:00:00 0,8 0,0 -2,5 1,0 4,4 5,8 2 1 4 2 ZZO 1031,0 8 0 0,0
15.02.2019 23:00:00 0,6 -0,4 -2,8 1,1 4,7 5,8 0 0 3 2 N 1031,3 8 0 0,0
15.02.2019 22:00:00 1,4 -0,4 -2,8 1,3 5,0 5,8 0 0 5 3 N 1031,3 11 0 0,0
15.02.2019 21:00:00 2,3 0,4 -2,0 2,2 5,4 5,8 3 2 5 3 Z 1031,3 7 0 0,0
15.02.2019 20:00:00 3,2 0,4 -1,0 3,4 5,6 5,8 2 1 4 2 ZZW 1031,3 11 0 0,0
15.02.2019 19:00:00 5,9 1,3 1,4 5,0 5,8 5,8 0 0 5 3 N 1031,2 14 0 0,0
15.02.2019 18:00:00 8,9 1,8 3,4 7,4 5,7 5,8 5 3 8 4 NNW 1030,7 20 2 0,0
15.02.2019 17:00:00 11,7 1,3 13,1 10,0 5,3 5,8 6 3 9 5 NW 1030,3 28 60 0,0
15.02.2019 16:00:00 12,4 1,1 15,4 11,8 4,6 5,8 5 3 10 5 NW 1030,7 30 60 0,0
15.02.2019 15:00:00 12,6 0,8 15,4 12,2 3,8 5,8 3 2 11 6 NNW 1031,2 24 60 0,0
15.02.2019 14:00:00 12,0 1,1 14,8 11,3 3,0 5,8 0 0 10 5 N 1031,8 24 60 0,0
15.02.2019 13:00:00 9,8 0,3 13,8 8,9 2,5 5,8 4 2 8 4 WZW 1032,6 21 60 0,0
15.02.2019 12:00:00 8,8 0,2 11,0 3,6 2,3 5,8 3 2 8 4 ZZW 1033,8 18 60 0,0
15.02.2019 11:00:00 6,7 0,4 6,9 0,1 2,4 5,8 2 1 5 3 Z 1034,2 22 60 0,0
15.02.2019 10:00:00 3,2 0,0 5,1 0,0 2,5 5,8 3 2 4 2 NNW 1034,8 12 60 0,0
15.02.2019 09:00:00 0,3 -1,3 -0,2 0,0 2,6 5,8 3 2 3 2 ZW 1035,3 4,5 36 0,0
15.02.2019 08:00:00 -2,9 -3,5 -5,0 0,1 2,7 5,8 0 0 3 2 N 1035,6 4,5 0 0,0
15.02.2019 07:00:00 -3,0 -3,7 -5,3 0,2 2,9 5,8 0 0 4 2 N 1035,3 6 0 0,0
15.02.2019 06:00:00 -2,0 -2,8 -4,6 0,3 3,0 5,8 0 0 4 2 N 1035,2 5 0 0,0
15.02.2019 05:00:00 -2,1 -2,8 -4,2 0,4 3,1 5,8 0 0 4 2 N 1035,2 2,7 0 0,0
15.02.2019 04:00:00 -1,9 -2,8 -4,2 0,5 3,3 5,8 4 2 6 3 ONO 1035,4 3,0 0 0,0
15.02.2019 03:00:00 -1,2 -2,1 -3,7 0,6 3,4 5,8 2 1 4 2 Z 1035,5 6 0 0,0
15.02.2019 02:00:00 -1,7 -2,7 -4,0 0,7 3,6 5,8 0 0 3 2 N 1035,6 7 0 0,0
15.02.2019 01:00:00 -0,7 -1,4 -3,6 0,8 3,8 5,8 0 0 5 3 N 1035,7 6 0 0,0
15.02.2019 00:00:00 0,4 -1,2 -2,5 0,9 4,1 5,8 2 1 9 5 ZW 1035,7 12 0 0,0
14.02.2019 23:00:00 0,6 -0,5 -2,8 1,0 4,4 5,8 3 2 5 3 NW 1036,0 10 0 0,0
14.02.2019 22:00:00 1,7 -0,1 -2,5 1,2 4,8 5,8 2 1 5 3 NNO 1035,9 7 0 0,0
14.02.2019 21:00:00 3,1 0,5 -1,3 2,1 5,1 5,8 4 2 6 3 W 1035,7 14 0 0,0
14.02.2019 20:00:00 3,9 0,6 -0,9 3,2 5,3 5,8 0 0 3 2 N 1035,7 15 0 0,0
14.02.2019 19:00:00 5,4 0,7 0,7 4,8 5,4 5,8 0 0 5 3 N 1035,4 27 0 0,0
14.02.2019 18:00:00 7,6 0,4 3,5 7,0 5,3 5,8 3 2 10 5 N 1034,9 31 0 0,0
14.02.2019 17:00:00 10,9 -0,5 12,3 9,6 4,8 5,8 5 3 7 4 NW 1034,4 40 60 0,0
14.02.2019 16:00:00 11,2 -1,5 14,8 11,0 4,2 5,8 3 1 9 5 WNW 1035,3 38 60 0,0
14.02.2019 15:00:00 10,6 -1,4 15,3 11,3 3,5 5,8 5 3 9 5 N 1035,8 34 60 0,0
14.02.2019 14:00:00 9,8 -1,3 14,3 10,1 2,8 5,8 4 2 10 5 NW 1036,4 35 60 0,0
14.02.2019 13:00:00 8,4 -1,5 12,6 7,5 2,3 5,8 6 4 13 7 NW 1037,1 30 60 0,0
14.02.2019 12:00:00 8,0 -1,2 11,7 1,9 2,2 5,8 5 3 11 6 NNW 1037,8 48 60 0,0
14.02.2019 11:00:00 5,5 -2,1 7,7 0,0 2,2 5,8 5 3 8 5 N 1038,2 47 60 0,0
14.02.2019 10:00:00 3,0 -1,7 4,9 0,0 2,3 5,8 6 3 7 4 NNW 1038,3 25 60 0,0
14.02.2019 09:00:00 0,2 -2,3 -0,3 0,0 2,4 5,8 0 0 6 3 N 1038,5 12 35 0,0
14.02.2019 08:00:00 -2,9 -4,0 -4,7 0,1 2,5 5,8 5 3 7 4 NO 1038,6 7 0 0,0
14.02.2019 07:00:00 -3,0 -3,9 -5,0 0,1 2,6 5,8 5 3 8 5 NO 1038,0 3,8 0 0,0
14.02.2019 06:00:00 -2,8 -4,0 -4,3 0,2 2,7 5,8 4 2 5 3 Z 1037,9 16 0 0,0
14.02.2019 05:00:00 -2,5 -3,3 -4,8 0,3 2,8 5,8 0 0 3 2 N 1037,8 9 0 0,0
14.02.2019 04:00:00 -2,2 -3,5 -4,2 0,4 2,9 5,8 0 0 3 2 N 1037,9 18 0 0,0
14.02.2019 03:00:00 -2,4 -3,3 -3,8 0,5 3,1 5,8 2 1 5 3 NO 1038,0 4,4 0 0,0
14.02.2019 02:00:00 -1,6 -2,7 -3,6 0,5 3,2 5,8 3 1 5 3 ZZW 1038,2 10 0 0,0
14.02.2019 01:00:00 -1,8 -3,1 -3,4 0,6 3,4 5,8 4 2 5 3 Z 1038,2 13 0 0,0
14.02.2019 00:00:00 -1,0 -2,1 -3,8 0,7 3,6 5,8 1 1 5 3 ZZO 1037,9 13 0 0,0
13.02.2019 23:00:00 -0,7 -1,8 -3,3 0,8 3,8 5,8 3 1 5 3 N 1037,9 15 0 0,0
13.02.2019 22:00:00 -0,6 -1,7 -2,6 0,9 4,1 5,8 2 1 3 2 NNO 1037,9 20 0 0,0
13.02.2019 21:00:00 0,6 -1,5 -2,8 1,0 4,4 5,8 0 0 5 3 N 1037,8 18 0 0,0
13.02.2019 20:00:00 1,5 -0,7 -1,8 1,9 4,6 5,8 1 0 4 2 N 1037,8 18 0 0,0
13.02.2019 19:00:00 3,1 0,2 -0,9 3,2 4,8 5,9 0 0 5 3 N 1037,5 32 0 0,0
13.02.2019 18:00:00 5,3 -0,5 1,0 5,2 4,7 5,9 4 2 9 5 NNW 1036,8 45 0 0,0
13.02.2019 17:00:00 7,9 -1,0 9,7 7,9 4,4 5,9 5 3 10 5 NW 1036,2 47 58 0,0
13.02.2019 16:00:00 8,2 -1,2 11,9 9,1 3,8 5,8 5 3 11 6 NW 1036,4 54 60 0,0
13.02.2019 15:00:00 8,3 -1,6 11,7 9,5 3,1 5,8 4 2 14 7 WNW 1036,6 57 60 0,0
13.02.2019 14:00:00 6,6 -3,5 12,2 8,3 2,6 5,8 5 3 13 7 NNW 1037,2 44 60 0,0
13.02.2019 13:00:00 5,9 -2,3 10,2 5,5 2,3 5,8 5 3 9 5 NNW 1037,6 52 60 0,0
13.02.2019 12:00:00 4,9 -2,8 8,3 0,1 2,3 5,8 4 2 9 5 NW 1038,1 48 60 0,0
13.02.2019 11:00:00 2,6 -2,7 4,2 0,0 2,4 5,8 6 3 9 5 WZW 1038,6 37 60 0,0
13.02.2019 10:00:00 1,0 -2,4 2,1 0,0 2,4 5,8 7 4 10 6 WZW 1038,8 35 60 0,0
13.02.2019 09:00:00 -0,9 -3,0 -0,8 -0,1 2,5 5,8 3 1 10 6 WZW 1039,0 6 33 0,0
13.02.2019 08:00:00 -3,7 -5,0 -5,3 0,0 2,7 5,8 3 1 5 3 WZW 1039,4 20 0 0,0
13.02.2019 07:00:00 -3,9 -4,8 -5,5 0,1 2,8 5,8 3 2 4 2 NNO 1039,5 13 0 0,0
13.02.2019 06:00:00 -3,6 -4,8 -6,0 0,2 2,9 5,8 0 0 7 4 N 1039,5 18 0 0,0
13.02.2019 05:00:00 -3,3 -4,2 -4,8 0,3 3,0 5,8 2 1 5 3 NO 1038,6 14 0 0,0
13.02.2019 04:00:00 -3,2 -4,3 -4,7 0,4 3,1 5,8 2 1 6 4 NO 1038,7 17 0 0,0
13.02.2019 03:00:00 -2,8 -4,3 -4,7 0,5 3,3 5,8 3 1 4 2 Z 1038,9 28 0 0,0
13.02.2019 02:00:00 -2,4 -3,7 -4,1 0,5 3,4 5,8 0 0 6 4 N 1039,0 24 0 0,0
13.02.2019 01:00:00 -1,5 -2,7 -4,1 0,6 3,6 5,8 5 3 9 5 N 1038,5 31 0 0,0
13.02.2019 00:00:00 -2,2 -2,9 -3,8 0,7 3,8 5,8 0 0 5 3 N 1039,1 17 0 0,0
12.02.2019 23:00:00 -1,4 -2,8 -3,3 0,8 4,1 5,8 2 1 7 4 NO 1038,8 15 0 0,0
12.02.2019 22:00:00 -1,6 -2,8 -3,0 0,9 4,4 5,8 4 2 6 3 NNW 1038,7 13 0 0,0
12.02.2019 21:00:00 -0,6 -1,8 -2,6 1,0 4,8 5,8 3 2 6 3 NNO 1038,5 15 0 0,0
12.02.2019 20:00:00 1,1 -0,6 -1,8 2,0 5,1 5,8 4 2 5 3 N 1038,4 22 0 0,0
12.02.2019 19:00:00 1,9 -0,5 -0,8 3,3 5,3 5,8 3 2 5 3 ONO 1037,8 20 0 0,0
12.02.2019 18:00:00 5,0 -0,5 2,5 5,0 5,3 5,8 3 2 10 5 NNO 1036,9 22 0 0,0
12.02.2019 17:00:00 5,6 -0,9 5,4 6,6 5,2 5,8 7 4 10 6 N 1037,0 39 8 0,0
12.02.2019 16:00:00 5,8 -1,2 6,3 7,8 4,9 5,8 4 2 7 4 O 1037,1 48 0 0,0
12.02.2019 15:00:00 5,7 -0,9 7,0 8,5 4,5 5,8 3 2 11 6 NO 1037,0 36 14 0,0
12.02.2019 14:00:00 5,6 0,5 8,8 8,9 4,0 5,8 4 2 9 5 NNW 1037,2 27 11 0,0
12.02.2019 13:00:00 4,7 1,3 6,9 8,2 3,5 5,8 3 2 11 6 N 1037,5 15 20 0,0
12.02.2019 12:00:00 3,7 1,5 7,6 6,2 3,1 5,8 3 2 11 6 NNW 1037,7 11 14 0,0
12.02.2019 11:00:00 1,9 0,7 5,1 3,8 3,0 5,8 5 3 11 6 WNW 1037,1 9 1 0,0
12.02.2019 10:00:00 0,8 0,4 1,6 1,9 3,0 5,8 8 5 12 6 ZW 1037,4 4,0 0 0,0
12.02.2019 09:00:00 0,2 0,0 0,4 1,0 3,0 5,8 8 5 13 7 WZW 1036,6 0,3 0 0,0
12.02.2019 08:00:00 0,2 -0,3 0,1 0,5 3,2 5,8 10 5 14 8 ZW 1035,8 1,4 0 0,0
12.02.2019 07:00:00 0,2 -0,5 -1,4 0,2 3,4 5,8 3 2 6 3 NNW 1035,6 9 0 0,0
12.02.2019 06:00:00 0,3 -0,4 -0,6 0,8 3,5 5,8 4 2 6 3 ZW 1035,5 5 0 0,0
12.02.2019 05:00:00 1,4 0,6 0,2 1,5 3,6 5,8 4 2 7 4 WNW 1035,2 19 0 0,0
12.02.2019 04:00:00 2,0 1,1 1,1 1,9 3,7 5,8 2 1 7 4 W 1034,5 15 0 0,0
12.02.2019 03:00:00 1,7 0,7 1,2 2,0 3,7 5,8 3 1 5 3 NW 1034,3 11 0 0,0
12.02.2019 02:00:00 2,0 0,9 1,1 1,8 3,9 5,8 4 2 10 5 WNW 1033,8 16 0 0,0
12.02.2019 01:00:00 1,7 1,0 1,0 1,6 4,0 5,8 5 3 13 7 ZW 1033,3 16 0 0,0

tt = temperatuur
td = dauwpunt
tt 5cm = temperatuur 5cm
tt -5cm = temperatuur -5cm
tt -20cm = temperatuur -20cm
tt -100cm = temperatuur -100cm
ff = windsnelheid
fx = windstoten
dd = windrichting
ppp = luchtdruk
vv = zicht
sd = Zonneschijnduur
rr = neerslag

Weerstations in de omgeving